Regional Weather Roundup
Issued by NWS

Home | Current Version | Previous Version | Text Only | Print | Product List | Glossary On
Versions: 1 2 3 4 5 6 7 8 9 10 11 12 13 14 15 16 17 18 19 20 21 22 23 24 25 26 27 28
000
ASUS43 KMPX 282310
RWRMN
WEATHER ROUNDUP FOR MINNESOTA
NATIONAL WEATHER SERVICE TWIN CITIES/CHANHASSEN MN
500 PM CST MON NOV 28 2022


NOTE: "FAIR" INDICATES FEW OR NO CLOUDS BELOW 12,000 FEET WITH NO
SIGNIFICANT WEATHER AND/OR OBSTRUCTIONS TO VISIBILITY. N/A MEANS
CURRENT SKY AND/OR WEATHER CONDITIONS ARE NOT AVAILABLE.

MNZ060>063-068>070-290000-
   Twin Cities Metro

CITY           SKY/WX    TMP DP  RH WIND       PRES   REMARKS
TWIN CITIES    MOCLDY    40  28  62 S6        29.64R
ST PAUL        MOCLDY    36  28  73 S6        29.65R
CRYSTAL        MOCLDY    40  27  59 S3        29.62R
BLAINE         MOCLDY    39  28  65 CALM      29.63R
LAKEVILLE      MOCLDY    36  28  75 CALM      29.64R
EDEN PRAIRIE   MOCLDY    40  28  62 CALM      29.61S
SOUTH ST PAUL  MOCLDY    39  28  66 S3        29.63S
LAKE ELMO      FAIR      36  28  75 S6        29.64S
$$
MNZ001>005-007-008-013>017-022>024-027-028-290000-
   Northwest Minnesota

CITY           SKY/WX    TMP DP  RH WIND       PRES   REMARKS
BEMIDJI        FLURRIES  32  26  78 CALM      29.56R
HALLOCK        PTCLDY    28  21  74 SW14      29.52R WCI  17
ROSEAU         LGT SNOW  34  30  86 S10       29.50S WCI  26
WARROAD        FLURRIES  32  28  86 S8        29.51S WCI  25
THIEF RVR FALL FLURRIES  27  27 100 W13       29.57R WCI  16
CROOKSTON        N/A     28  21  74 W13       29.59R WCI  18
FOSSTON        LGT SNOW  28  28 100 SW9       29.57R WCI  20
DETROIT LAKES  FLURRIES  32  28  86 W9        29.59R WCI  24
MOORHEAD       PTCLDY    32  23  69 W14       29.63R WCI  22
PARK RAPIDS    CLOUDY    32  25  75 S5        29.56R WCI  27
MAHNOMEN       LGT SNOW  30  30  99 W15       29.58R WCI  19
$$
MNZ006-009>011-018-025>026-290000-
   North Central Minnesota

CITY           SKY/WX    TMP DP  RH WIND       PRES   REMARKS
BAUDETTE       CLOUDY    34  26  72 S12       29.53R WCI  25
FLAG ISLAND      N/A     30  27  86 S18       29.50S VSB 3/4 WCI  18
INTL FALLS     CLOUDY    31  27  85 S8        29.57S WCI  23
WASKISH        CLOUDY    34  28  80 S6        29.56R WCI  29
BIG FORK       CLOUDY    32  28  86 S7        29.64R WCI  26
LONGVILLE      CLOUDY    30  25  80 SE5       29.58S WCI  25
GRAND RAPIDS   CLOUDY    30  27  88 SE5       29.62R WCI  25
CRANE LAKE     CLOUDY    28  27  93 SE5       29.65R WCI  23
ORR            CLOUDY    28  27  93 SE6       29.58S WCI  22
COOK           CLOUDY    30  27  86 SE6       29.61R WCI  24
WALKER         MOCLDY    31  25  77 S3        29.58R
$$
MNZ012-019>021-037-290000-
   Northeast Minnesota

CITY           SKY/WX    TMP DP  RH WIND       PRES   REMARKS
DULUTH         CLOUDY    31  28  89 SE7       29.61R WCI  24
ELY            FLURRIES  28  27  93 SE6       29.63R WCI  22
HIBBING        CLOUDY    29  26  89 SE8       29.60S WCI  21
EVELETH        CLOUDY    30  27  86 S3        29.63R
DULUTH HARBOR  CLOUDY    36  27  69 SE5       29.64R
TWO HARBORS    CLOUDY    30  28  93 E5        29.63R WCI  25
GRAND MARAIS     N/A     38  28  67 SE15      29.69F
G MARAIS ARPRT MOCLDY    28  25  86 E8G17     29.63F WCI  20
$$
MNZ029>031-032-039>041-046>048-054>057-064-290000-
   West Central Minnesota

CITY           SKY/WX    TMP DP  RH WIND       PRES   REMARKS
FERGUS FALLS   PTCLDY    34  28  80 NW10      29.61R WCI  26
WHEATON          N/A     34  23  64 W12       29.66R WCI  25
MORRIS           N/A     34  27  75 NW8       29.64R WCI  27
ALEXANDRIA     CLOUDY    33  26  75 W9        29.62R WCI  25
ELBOW LAKE     FAIR      31  29  93 W6        29.62R WCI  26
WADENA         CLOUDY    34  27  75 W5        29.59S WCI  30
GLENWOOD       MOCLDY    32  27  80 W8        29.62R WCI  25
APPLETON       MOCLDY    36  27  69 N6        29.64R
BENSON         MOCLDY    34  27  75 N7        29.64R WCI  28
ORTONVILLE       N/A     34  23  64 NW7       29.65R WCI  28
MADISON        MOCLDY    37  27  65 NW13      29.67R
WILLMAR        FAIR      36  28  75 W6        29.66R
$$
MNZ033>034-036-042>043-049>051-058-059-290000-
   Central Minnesota

CITY           SKY/WX    TMP DP  RH WIND       PRES   REMARKS
ST CLOUD       MOCLDY    32  27  81 CALM      29.62R
SAUK CENTRE    FAIR      31  27  86 W5        29.62R WCI  26
PAYNESVILLE    MOCLDY    32  28  86 CALM      29.62R
AITKIN         CLOUDY    34  27  75 CALM      29.61R
PINE RIVER     PTCLDY    32  27  80 CALM      29.63S
BRAINERD       CLOUDY    35  25  66 S6        29.61R WCI  30
STAPLES          N/A     34  27  75 CALM      29.60R
LONG PRAIRIE   FAIR      32  27  80 CALM      29.62R
CAMP RIPLEY    FAIR      31  25  78 CALM      29.59S
LITCHFIELD     MOCLDY    36  27  69 W3        29.62R
BUFFALO        MOCLDY    36  28  75 CALM      29.62R
MAPLE LAKE     MOCLDY    35  28  75 CALM      29.63R
$$
MNZ037-044-045-052-053-290000-
   East Central Minnesota

CITY           SKY/WX    TMP DP  RH WIND       PRES   REMARKS
PRINCETON      MOCLDY    32  27  80 CALM      29.63S
MORA           MOCLDY    36  27  69 CALM      29.66R
CAMBRIDGE      MOCLDY    37  23  56 CALM      29.63R
RUSH CITY      MOCLDY    39  29  68 CALM      29.64R
MOOSE LAKE     CLOUDY    36  27  69 CALM      29.63R
HINCKLEY       CLOUDY    34  28  80 CALM      29.63R
CLOQUET        CLOUDY    30  27  86 CALM      29.61R
MCGREGOR       CLOUDY    34  28  80 CALM      29.61S
$$
MNZ071>073-080-081-089-090-097-098-290000-
   Southwest Minnesota

CITY           SKY/WX    TMP DP  RH WIND       PRES   REMARKS
MONTEVIDEO     MOCLDY    36  28  75 NW3       29.65R
GRANITE FALLS  PTCLDY    37  29  75 NW8       29.66R
CANBY          MOCLDY    37  28  70 NW7       29.66R
MARSHALL       PTCLDY    36  27  69 N12       29.65R
REDWOOD FALLS  PTCLDY    38  26  62 W8        29.63R
OLIVIA         PTCLDY    36  28  75 NW5       29.63R
WINDOM         MOCLDY    39  27  60 SW8       29.63R
WORTHINGTON    MOCLDY    38  25  59 W8        29.64R
JACKSON        MOCLDY    39  28  65 SW9       29.64R
TRACY          PTCLDY    37  30  75 NW9       29.64R
SLAYTON        PTCLDY    35  24  66 NW8       29.64R WCI  28
$$
MNZ065>067-074>077-082>085-091>093-290000-
   South Central Minnesota

CITY           SKY/WX    TMP DP  RH WIND       PRES   REMARKS
MANKATO        MOCLDY    42  28  57 SW8       29.64R
ST JAMES         N/A     39  27  60 SW7       29.64R
GLENCOE        MOCLDY    37  30  77 CALM      29.62R
FARIBAULT      MOCLDY    39  30  70 S3        29.64R
OWATONNA       MOCLDY    41  28  60 S10       29.64R
WASECA         MOCLDY    37  30  75 S8        29.65R
ALBERT LEA     MOCLDY    43  30  61 S7        29.65R
$$
MNZ078>079-086>088-094>096-290000-
   Southeast Minnesota

CITY           SKY/WX    TMP DP  RH WIND       PRES   REMARKS
ROCHESTER      MOCLDY    39  28  64 S22G29    29.65S
RED WING       MOCLDY    39  27  60 S5        29.66R
STANTON        MOCLDY    38  29  69 S5        29.64R
DODGE CENTER   MOCLDY    37  28  70 S12       29.65R
WINONA         MOCLDY    41  27  56 SE5       29.70R
AUSTIN         MOCLDY    41  28  60 S9        29.65R
PRESTON        MOCLDY    38  28  65 S15       29.68S
$$
ABBREVIATIONS USED IN REMARKS
   TC - TEMPERATURES IN CELSIUS
  WCI - WIND CHILL INDEX
   HX - HEAT INDEX
  VSB - VISIBILITY
$$



USA.gov is the U.S. government's official web portal to all federal, state and local government web resources and services.